• In France
  • List of Countries
  • For 7 days
  • Water Temperature
  • Satellite Maps
  • Weather Map
  • Weather Widgets
  • user-avatar
    Login

    Hourly Weather Nizhnyaya Zamarayka

    Today, 22 August, Wednesday

    Time Temperature Precipitation Wind Pressure Humidity
    00:00 +18°C° 0 mm 3 mps 743 mmHg 92%
    01:00 +17°C° 0 mm 3 mps 743 mmHg 93%
    02:00 +16°C° 0 mm 3 mps 744 mmHg 93%
    03:00 +16°C° 0 mm 3 mps 744 mmHg 93%
    04:00 +14°C° 0 mm 3 mps 744 mmHg 93%
    05:00 +14°C° 0 mm 3 mps 745 mmHg 93%
    06:00 +15°C° 0 mm 4 mps 745 mmHg 84%
    07:00 +17°C° 0 mm 4 mps 746 mmHg 76%
    08:00 +17°C° 0 mm 5 mps 746 mmHg 67%
    09:00 +19°C° 0 mm 5 mps 747 mmHg 60%
    10:00 +20°C° 0 mm 5 mps 747 mmHg 53%
    11:00 +21°C° 0 mm 6 mps 747 mmHg 46%
    12:00 +21°C° 0 mm 6 mps 748 mmHg 45%
    13:00 +21°C° 0 mm 6 mps 748 mmHg 44%
    14:00 +21°C° 0 mm 6 mps 748 mmHg 42%
    15:00 +21°C° 0 mm 5 mps 748 mmHg 45%
    16:00 +21°C° 0 mm 4 mps 748 mmHg 48%
    17:00 +20°C° 0 mm 4 mps 748 mmHg 50%
    18:00 +18°C° 0 mm 3 mps 749 mmHg 54%
    19:00 +17°C° 0 mm 3 mps 749 mmHg 58%
    20:00 +15°C° 0 mm 2 mps 749 mmHg 62%
    21:00 +15°C° 0 mm 2 mps 750 mmHg 64%
    22:00 +14°C° 0 mm 2 mps 750 mmHg 66%
    23:00 +14°C° 0 mm 2 mps 750 mmHg 68%

    Tomorrow, 23 August, Thursday

    Time Temperature Precipitation Wind Pressure Humidity
    00:00 +13°C° 0 mm 2 mps 751 mmHg 70%
    01:00 +13°C° 0 mm 2 mps 751 mmHg 72%
    02:00 +12°C° 0 mm 2 mps 751 mmHg 74%
    03:00 +12°C° 0 mm 2 mps 751 mmHg 75%
    04:00 +12°C° 0 mm 2 mps 752 mmHg 77%
    05:00 +11°C° 0 mm 1 mps 752 mmHg 78%
    06:00 +13°C° 0 mm 2 mps 752 mmHg 71%
    07:00 +15°C° 0 mm 2 mps 752 mmHg 65%
    08:00 +17°C° 0 mm 2 mps 752 mmHg 58%
    09:00 +18°C° 0 mm 2 mps 752 mmHg 53%
    10:00 +19°C° 0 mm 2 mps 752 mmHg 48%
    11:00 +20°C° 0 mm 2 mps 752 mmHg 43%
    12:00 +21°C° 0 mm 2 mps 752 mmHg 41%
    13:00 +21°C° 0 mm 2 mps 752 mmHg 40%
    14:00 +23°C° 0 mm 2 mps 752 mmHg 38%
    15:00 +22°C° 0 mm 1 mps 752 mmHg 41%
    16:00 +22°C° 0 mm 1 mps 751 mmHg 43%
    17:00 +22°C° 0 mm 1 mps 751 mmHg 45%
    18:00 +20°C° 0 mm 1 mps 751 mmHg 49%
    19:00 +19°C° 0 mm 1 mps 751 mmHg 52%
    20:00 +16°C° 0 mm 1 mps 751 mmHg 55%
    21:00 +15°C° 0 mm 1 mps 751 mmHg 57%
    22:00 +15°C° 0 mm 1 mps 752 mmHg 59%
    23:00 +14°C° 0 mm 1 mps 752 mmHg 60%

    Day after tomorrow, 24 August, Friday

    Time Temperature Precipitation Wind Pressure Humidity
    00:00 +14°C° 0 mm 1 mps 752 mmHg 61%
    01:00 +13°C° 0 mm 1 mps 751 mmHg 62%
    02:00 +13°C° 0 mm 1 mps 751 mmHg 63%
    03:00 +13°C° 0 mm 1 mps 751 mmHg 65%
    04:00 +13°C° 0 mm 1 mps 751 mmHg 66%
    05:00 +12°C° 0 mm 1 mps 751 mmHg 67%
    06:00 +14°C° 0 mm 1 mps 751 mmHg 62%
    07:00 +16°C° 0 mm 1 mps 751 mmHg 57%
    08:00 +20°C° 0 mm 1 mps 751 mmHg 51%
    09:00 +20°C° 0 mm 2 mps 751 mmHg 48%
    10:00 +21°C° 0 mm 2 mps 751 mmHg 44%
    11:00 +23°C° 0 mm 2 mps 751 mmHg 40%
    12:00 +24°C° 0 mm 2 mps 751 mmHg 39%
    13:00 +24°C° 0 mm 2 mps 750 mmHg 37%
    14:00 +25°C° 0 mm 1 mps 750 mmHg 35%
    15:00 +24°C° 0 mm 1 mps 750 mmHg 38%
    16:00 +24°C° 0 mm 1 mps 750 mmHg 41%
    17:00 +24°C° 0 mm 1 mps 749 mmHg 44%
    18:00 +22°C° 0 mm 1 mps 749 mmHg 47%
    19:00 +19°C° 0 mm 2 mps 749 mmHg 50%
    20:00 +17°C° 0 mm 2 mps 749 mmHg 52%
    21:00 +17°C° 0 mm 2 mps 749 mmHg 54%
    22:00 +16°C° 0 mm 2 mps 749 mmHg 55%
    23:00 +16°C° 0 mm 2 mps 749 mmHg 56%

    25 August, Saturday

    Time Temperature Precipitation Wind Pressure Humidity
    00:00 +15°C° 0 mm 2 mps 749 mmHg 57%
    01:00 +15°C° 0 mm 2 mps 749 mmHg 58%
    02:00 +15°C° 0 mm 2 mps 749 mmHg 59%
    03:00 +14°C° 0 mm 2 mps 749 mmHg 61%
    04:00 +14°C° 0 mm 2 mps 749 mmHg 62%
    05:00 +14°C° 0 mm 2 mps 749 mmHg 64%
    06:00 +16°C° 0 mm 2 mps 749 mmHg 60%
    07:00 +18°C° 0 mm 2 mps 749 mmHg 56%
    08:00 +20°C° 0 mm 3 mps 749 mmHg 52%
    09:00 +21°C° 0 mm 3 mps 749 mmHg 47%
    10:00 +24°C° 0 mm 3 mps 749 mmHg 43%
    11:00 +25°C° 0 mm 4 mps 749 mmHg 38%
    12:00 +26°C° 0 mm 4 mps 749 mmHg 37%
    13:00 +26°C° 0 mm 3 mps 748 mmHg 36%
    14:00 +27°C° 0 mm 3 mps 748 mmHg 35%
    15:00 +26°C° 0 mm 3 mps 748 mmHg 39%
    16:00 +26°C° 0 mm 3 mps 748 mmHg 42%
    17:00 +25°C° 0 mm 2 mps 747 mmHg 45%
    18:00 +23°C° 0 mm 2 mps 747 mmHg 48%
    19:00 +20°C° 0 mm 2 mps 747 mmHg 50%
    20:00 +19°C° 0 mm 2 mps 747 mmHg 52%
    21:00 +18°C° 0 mm 2 mps 747 mmHg 52%
    22:00 +18°C° 0 mm 2 mps 747 mmHg 53%
    23:00 +17°C° 0 mm 2 mps 747 mmHg 53%

    26 August, Sunday

    Time Temperature Precipitation Wind Pressure Humidity
    00:00 +17°C° 0 mm 2 mps 747 mmHg 53%
    01:00 +16°C° 0 mm 2 mps 747 mmHg 54%
    02:00 +16°C° 0 mm 2 mps 747 mmHg 54%
    03:00 +14°C° 0 mm 3 mps 747 mmHg 55%
    04:00 +14°C° 0 mm 3 mps 747 mmHg 57%
    05:00 +14°C° 0 mm 3 mps 747 mmHg 58%
    06:00 +17°C° 0 mm 3 mps 747 mmHg 56%
    07:00 +19°C° 0 mm 3 mps 747 mmHg 53%
    08:00 +21°C° 0 mm 3 mps 747 mmHg 51%
    09:00 +23°C° 0 mm 4 mps 747 mmHg 46%
    10:00 +25°C° 0 mm 4 mps 747 mmHg 41%
    11:00 +27°C° 0 mm 4 mps 747 mmHg 37%
    12:00 +28°C° 0 mm 4 mps 746 mmHg 35%
    13:00 +28°C° 0 mm 4 mps 746 mmHg 34%
    14:00 +29°C° 0 mm 4 mps 746 mmHg 33%
    15:00 +28°C° 0 mm 3 mps 746 mmHg 37%
    16:00 +27°C° 0 mm 3 mps 746 mmHg 41%
    17:00 +27°C° 0 mm 2 mps 745 mmHg 45%
    18:00 +25°C° 0 mm 3 mps 745 mmHg 48%
    19:00 +22°C° 0 mm 3 mps 746 mmHg 50%
    20:00 +20°C° 0 mm 3 mps 746 mmHg 53%
    21:00 +20°C° 0 mm 3 mps 746 mmHg 54%
    22:00 +19°C° 0 mm 3 mps 746 mmHg 54%
    23:00 +19°C° 0 mm 3 mps 746 mmHg 55%

    27 August, Monday

    Time Temperature Precipitation Wind Pressure Humidity
    00:00 +19°C° 0 mm 3 mps 746 mmHg 56%
    01:00 +18°C° 0 mm 3 mps 746 mmHg 58%
    02:00 +18°C° 0 mm 3 mps 746 mmHg 59%
    03:00 +17°C° 0 mm 3 mps 746 mmHg 61%
    04:00 +17°C° 0 mm 3 mps 746 mmHg 63%
    05:00 +17°C° 0 mm 3 mps 746 mmHg 66%
    06:00 +19°C° 0 mm 3 mps 746 mmHg 63%
    07:00 +20°C° 0 mm 3 mps 746 mmHg 60%
    08:00 +22°C° 0 mm 4 mps 747 mmHg 57%
    09:00 +25°C° 0 mm 4 mps 747 mmHg 51%
    10:00 +27°C° 0 mm 4 mps 747 mmHg 46%
    11:00 +28°C° 0 mm 4 mps 747 mmHg 41%
    12:00 +29°C° 0 mm 4 mps 747 mmHg 40%
    13:00 +29°C° 0 mm 4 mps 747 mmHg 38%
    14:00 +30°C° 0 mm 4 mps 747 mmHg 37%
    15:00 +29°C° 0 mm 3 mps 747 mmHg 41%
    16:00 +28°C° 0 mm 3 mps 747 mmHg 44%
    17:00 +28°C° 0 mm 2 mps 747 mmHg 48%
    18:00 +26°C° 0 mm 3 mps 747 mmHg 51%
    19:00 +24°C° 0 mm 3 mps 747 mmHg 54%
    20:00 +22°C° 0 mm 3 mps 747 mmHg 56%
    21:00 +21°C° 0 mm 3 mps 748 mmHg 59%
    22:00 +21°C° 0 mm 3 mps 748 mmHg 61%
    23:00 +20°C° 0 mm 3 mps 748 mmHg 63%
    Show more